Tracking 18945 objects as of 21-Jan-2018
HD Live streaming from Space Station
objects crossing your sky now

FENGYUN 1C DEB

Track FENGYUN 1C DEB now!
10-day predictions


NORAD ID: 31966
Int'l Code: 1999-025CNT
Perigee: 659.4 km
Apogee: 832.0 km
Inclination: 99.0 °
Period: 99.6 minutes
Semi major axis: 7116 km
RCS: 0.0117 m2 (small)
Launch date: May 10, 1999
Source: People's Republic of China (PRC)
Launch site: Taiyaun Space Center, China (TSC)

Note: This is SATELLITE DEBRIS
aabbcc
Your satellite tracking list
Your tracking list is empty




NASA's NSSDC Master Catalog

Two Line Element Set (TLE):
1 31966U 99025CNT 18018.54798455 +.00000278 +00000-0 +85661-4 0  9992
2 31966 098.9821 289.8676 0121294 296.0626 062.8119 14.46061711239114
Source of the keplerian elements: AFSPC